Location: North Evanston
(42.0634°N, 87.6976°W)
Time: 14:34:43
(UTC+00:00)

Vanguard 2 Rocket - Pass Details

Date: 13 May 2026
Orbit: 553 x 3286 km, 32.9° (Epoch: 6 June)

Event Time Altitude Azimuth Distance (km) Brightness Sun altitude
Rises 17:28:23 0° 239° (WSW) 5,517 11.0 66.1°
Reaches altitude 10° 17:31:35 10° 235° (SW) 4,825 10.9 66.2°
Maximum altitude 17:46:09 56° 162° (SSE) 3,387 12.0 66.5°
Drops below altitude 10° 18:05:24 10° 92° (E) 6,202 11.2 66.1°
Sets 18:10:10 0° 88° (E) 7,121 11.4 66.0°
